BTR300 LICC-LIPY

Flight info

Callsign BTR300
Flight time 1h 9m
Altitude 36000
Route BUDIN DCT DIRED DCT SOR DCT OTRET M736 GERBU
Aircraft B738/M-SDE2E3FGHIRWXY/LB1

Departure

Time 2026-04-21 23:19
Airport Catania-Fontanarossa Airport (LICC)

Arrival

Time 2026-04-22 00:28
Airport Marche Airport (LIPY)
Time Latitude Longitude Altitude Speed Heading
2026-04-21 22:42 37.46949 15.06527 31 ft 0 kts 18°
2026-04-21 23:11 37.46941 15.06524 31 ft 2 kts 18°
2026-04-21 23:12 37.46925 15.06518 31 ft 2 kts 18°
2026-04-21 23:12 37.46910 15.06511 31 ft 2 kts 18°
2026-04-21 23:12 37.46894 15.06504 28 ft 2 kts 43°
2026-04-21 23:12 37.46887 15.06489 29 ft 1 kts 103°
2026-04-21 23:13 37.46889 15.06481 30 ft 0 kts 112°
2026-04-21 23:14 37.46889 15.06482 30 ft 0 kts 113°
2026-04-21 23:14 37.46887 15.06485 29 ft 1 kts 118°
2026-04-21 23:14 37.46881 15.06495 29 ft 3 kts 128°
2026-04-21 23:14 37.46856 15.06528 32 ft 7 kts 135°
2026-04-21 23:15 37.46840 15.06596 33 ft 10 kts 85°
2026-04-21 23:15 37.46850 15.06706 33 ft 14 kts 82°
2026-04-21 23:15 37.46862 15.06832 31 ft 14 kts 85°
2026-04-21 23:15 37.46871 15.06954 31 ft 14 kts 83°
2026-04-21 23:16 37.46881 15.07071 33 ft 13 kts 87°
2026-04-21 23:16 37.46889 15.07183 34 ft 13 kts 83°
2026-04-21 23:16 37.46901 15.07293 33 ft 12 kts 82°
2026-04-21 23:16 37.46910 15.07400 32 ft 12 kts 84°
2026-04-21 23:17 37.46918 15.07505 32 ft 12 kts 84°
2026-04-21 23:17 37.46928 15.07619 32 ft 15 kts 84°
2026-04-21 23:17 37.46939 15.07761 29 ft 18 kts 84°
2026-04-21 23:17 37.46953 15.07918 31 ft 15 kts 83°
2026-04-21 23:18 37.46946 15.08052 24 ft 17 kts 123°
2026-04-21 23:18 37.46843 15.08080 25 ft 16 kts 204°
2026-04-21 23:18 37.46788 15.07942 28 ft 31 kts 263°
2026-04-21 23:18 37.46733 15.07309 32 ft 113 kts 263°
2026-04-21 23:19 37.46624 15.06028 146 ft 171 kts 264°
2026-04-21 23:19 37.46510 15.04571 1109 ft 169 kts 264°
2026-04-21 23:19 37.46385 15.03042 1987 ft 183 kts 265°
2026-04-21 23:19 37.46243 15.01306 2381 ft 214 kts 264°
2026-04-21 23:20 37.46080 14.99355 2733 ft 235 kts 264°
2026-04-21 23:20 37.45902 14.97275 3450 ft 242 kts 264°
2026-04-21 23:20 37.45726 14.95182 4468 ft 239 kts 264°
2026-04-21 23:20 37.45548 14.93097 5398 ft 241 kts 265°
2026-04-21 23:21 37.45366 14.90996 6309 ft 242 kts 265°
2026-04-21 23:21 37.45182 14.88876 7117 ft 244 kts 265°
2026-04-21 23:21 37.44998 14.86748 8007 ft 245 kts 265°
2026-04-21 23:21 37.44813 14.84615 8860 ft 246 kts 265°
2026-04-21 23:22 37.44625 14.82463 9717 ft 248 kts 265°
2026-04-21 23:22 37.44443 14.80302 10477 ft 249 kts 269°
2026-04-21 23:22 37.44746 14.78168 11157 ft 251 kts 295°
2026-04-21 23:22 37.45797 14.76411 11886 ft 256 kts 319°
2026-04-21 23:23 37.47370 14.75328 12610 ft 264 kts 342°
2026-04-21 23:23 37.49211 14.74979 13344 ft 270 kts 350°
2026-04-21 23:23 37.51096 14.74739 14021 ft 274 kts 350°
2026-04-21 23:23 37.53003 14.74495 14670 ft 277 kts 350°
2026-04-21 23:24 37.54937 14.74244 15223 ft 286 kts 350°
2026-04-21 23:24 37.56992 14.73967 15389 ft 308 kts 350°
2026-04-21 23:24 37.59199 14.73666 15560 ft 330 kts 350°
2026-04-21 23:24 37.61551 14.73346 15717 ft 350 kts 351°
2026-04-21 23:25 37.64039 14.73008 15927 ft 368 kts 351°
2026-04-21 23:25 37.66616 14.72662 16408 ft 376 kts 351°
2026-04-21 23:25 37.69227 14.72312 17069 ft 379 kts 351°
2026-04-21 23:25 37.71857 14.71959 17737 ft 382 kts 351°
2026-04-21 23:26 37.74512 14.71600 18354 ft 386 kts 351°
2026-04-21 23:26 37.77191 14.71237 18904 ft 389 kts 351°
2026-04-21 23:26 37.79888 14.70870 19478 ft 391 kts 350°
2026-04-21 23:26 37.82605 14.70501 20079 ft 393 kts 350°
2026-04-21 23:27 37.85330 14.70130 20659 ft 395 kts 350°
2026-04-21 23:27 37.88071 14.69756 21210 ft 398 kts 350°
2026-04-21 23:27 37.90833 14.69384 21751 ft 401 kts 352°
2026-04-21 23:27 37.93645 14.69578 22232 ft 413 kts
2026-04-21 23:28 37.96368 14.70869 22759 ft 424 kts 23°
2026-04-21 23:28 37.98926 14.72659 23294 ft 427 kts 25°
2026-04-21 23:28 38.01511 14.74556 23717 ft 432 kts 26°
2026-04-21 23:28 38.04113 14.76486 24118 ft 434 kts 26°
2026-04-21 23:29 38.06732 14.78418 24530 ft 437 kts 25°
2026-04-21 23:29 38.09369 14.80343 24945 ft 439 kts 25°
2026-04-21 23:29 38.12027 14.82268 25332 ft 441 kts 25°
2026-04-21 23:29 38.14708 14.84200 25728 ft 443 kts 25°
2026-04-21 23:30 38.17397 14.86134 26123 ft 446 kts 25°
2026-04-21 23:30 38.20107 14.88082 26477 ft 448 kts 25°
2026-04-21 23:30 38.22826 14.90039 26833 ft 451 kts 24°
2026-04-21 23:30 38.25560 14.92010 27195 ft 453 kts 24°
2026-04-21 23:31 38.28305 14.93990 27544 ft 455 kts 24°
2026-04-21 23:31 38.31068 14.95986 27869 ft 457 kts 24°
2026-04-21 23:31 38.33841 14.97991 28208 ft 459 kts 24°
2026-04-21 23:31 38.36626 15.00007 28526 ft 462 kts 24°
2026-04-21 23:32 38.39424 15.02033 28839 ft 464 kts 24°
2026-04-21 23:32 38.42233 15.04069 29154 ft 466 kts 24°
2026-04-21 23:32 38.45115 15.05928 29435 ft 461 kts 14°
2026-04-21 23:32 38.48197 15.06900 29738 ft 453 kts
2026-04-21 23:33 38.51303 15.07014 30177 ft 442 kts 350°
2026-04-21 23:33 38.54290 15.06344 30603 ft 433 kts 342°
2026-04-21 23:33 38.57224 15.05496 30969 ft 432 kts 342°
2026-04-21 23:33 38.60156 15.04633 31266 ft 433 kts 342°
2026-04-21 23:34 38.63091 15.03772 31577 ft 432 kts 342°
2026-04-21 23:34 38.66023 15.02925 31943 ft 431 kts 342°
2026-04-21 23:34 38.68908 15.02102 32313 ft 429 kts 342°
2026-04-21 23:34 38.71820 15.01278 32654 ft 429 kts 342°
2026-04-21 23:35 38.74731 15.00459 32957 ft 428 kts 342°
2026-04-21 23:35 38.77642 14.99643 33283 ft 428 kts 342°
2026-04-21 23:35 38.80541 14.98831 33622 ft 426 kts 342°
2026-04-21 23:35 38.83436 14.98020 33951 ft 425 kts 342°
2026-04-21 23:36 38.86326 14.97209 34212 ft 425 kts 342°
2026-04-21 23:36 38.89214 14.96398 34472 ft 424 kts 342°
2026-04-21 23:36 38.92094 14.95589 34730 ft 424 kts 342°
2026-04-21 23:36 38.94969 14.94780 34990 ft 423 kts 342°
2026-04-21 23:37 38.97839 14.93972 35230 ft 423 kts 342°
2026-04-21 23:37 39.00710 14.93162 35436 ft 423 kts 342°
2026-04-21 23:37 39.03582 14.92351 35689 ft 422 kts 342°
2026-04-21 23:37 39.06445 14.91543 35922 ft 421 kts 342°
2026-04-21 23:38 39.12203 14.89913 35972 ft 424 kts 342°
2026-04-21 23:38 39.17948 14.88288 35967 ft 421 kts 342°
2026-04-21 23:39 39.23670 14.86665 36083 ft 423 kts 342°
2026-04-21 23:39 39.26541 14.85849 36310 ft 422 kts 342°
2026-04-21 23:39 39.29408 14.85035 36602 ft 420 kts 342°
2026-04-21 23:40 39.32257 14.84225 36828 ft 419 kts 342°
2026-04-21 23:40 39.35110 14.83413 37012 ft 420 kts 342°
2026-04-21 23:40 39.37964 14.82599 37189 ft 420 kts 342°
2026-04-21 23:40 39.40816 14.81786 37410 ft 419 kts 342°
2026-04-21 23:41 39.43662 14.80974 37619 ft 419 kts 342°
2026-04-21 23:41 39.46504 14.80162 37795 ft 419 kts 341°
2026-04-21 23:41 39.49351 14.79348 37936 ft 419 kts 341°
2026-04-21 23:41 39.52162 14.78542 37971 ft 421 kts 341°
2026-04-21 23:42 39.57874 14.76905 37976 ft 420 kts 341°
2026-04-21 23:42 39.63561 14.75275 37978 ft 417 kts 341°
2026-04-21 23:43 39.69215 14.73651 37973 ft 415 kts 341°
2026-04-21 23:43 39.74836 14.72032 37975 ft 413 kts 341°
2026-04-21 23:44 39.80445 14.70414 37978 ft 412 kts 341°
2026-04-21 23:44 39.86042 14.68796 37980 ft 412 kts 341°
2026-04-21 23:45 39.94449 14.66360 37979 ft 413 kts 341°
2026-04-21 23:46 40.00067 14.64730 37983 ft 414 kts 341°
2026-04-21 23:46 40.05702 14.63092 37980 ft 416 kts 341°
2026-04-21 23:47 40.11357 14.61446 37978 ft 417 kts 341°
2026-04-21 23:47 40.16987 14.59804 37979 ft 418 kts 341°
2026-04-21 23:48 40.22667 14.58145 37978 ft 419 kts 341°
2026-04-21 23:48 40.28359 14.56480 37975 ft 419 kts 341°
2026-04-21 23:49 40.34052 14.54811 37973 ft 419 kts 341°
2026-04-21 23:49 40.39744 14.53141 37974 ft 419 kts 341°
2026-04-21 23:50 40.45429 14.51469 37975 ft 418 kts 341°
2026-04-21 23:50 40.51102 14.49797 37981 ft 417 kts 341°
2026-04-21 23:51 40.56769 14.48125 37979 ft 417 kts 341°
2026-04-21 23:51 40.62418 14.46455 37985 ft 416 kts 341°
2026-04-21 23:52 40.68067 14.44781 37993 ft 416 kts 341°
2026-04-21 23:52 40.73710 14.43107 38002 ft 415 kts 341°
2026-04-21 23:53 40.79351 14.41431 37991 ft 415 kts 341°
2026-04-21 23:53 40.84980 14.39755 38006 ft 415 kts 341°
2026-04-21 23:54 40.90607 14.38076 37992 ft 415 kts 341°
2026-04-21 23:54 40.96230 14.36396 37993 ft 414 kts 341°
2026-04-21 23:55 41.01846 14.34716 37991 ft 413 kts 341°
2026-04-21 23:55 41.07453 14.33034 37997 ft 413 kts 341°
2026-04-21 23:56 41.13014 14.31365 37984 ft 412 kts 341°
2026-04-21 23:56 41.18646 14.29670 37980 ft 412 kts 341°
2026-04-21 23:57 41.24198 14.27996 37986 ft 412 kts 341°
2026-04-21 23:57 41.29790 14.26308 37992 ft 412 kts 341°
2026-04-21 23:58 41.35382 14.24616 38006 ft 412 kts 341°
2026-04-21 23:58 41.40970 14.22924 38016 ft 412 kts 341°
2026-04-21 23:59 41.46559 14.21227 38016 ft 412 kts 341°
2026-04-21 23:59 41.52144 14.19528 38021 ft 412 kts 341°
2026-04-22 00:00 41.57748 14.17821 38016 ft 413 kts 341°
2026-04-22 00:00 41.63347 14.16113 38024 ft 413 kts 341°
2026-04-22 00:01 41.68925 14.14409 38040 ft 411 kts 341°
2026-04-22 00:01 41.74499 14.12702 38027 ft 410 kts 341°
2026-04-22 00:02 41.80060 14.10996 38039 ft 410 kts 341°
2026-04-22 00:02 41.85623 14.09286 38032 ft 411 kts 341°
2026-04-22 00:02 41.88440 14.08416 37527 ft 418 kts 341°
2026-04-22 00:03 41.90311 14.07838 37202 ft 416 kts 341°
2026-04-22 00:03 41.93124 14.06973 36657 ft 414 kts 341°
2026-04-22 00:03 41.95925 14.06112 36058 ft 413 kts 341°
2026-04-22 00:03 41.98722 14.05249 35434 ft 413 kts 341°
2026-04-22 00:04 42.01520 14.04384 34809 ft 413 kts 341°
2026-04-22 00:04 42.04321 14.03518 34173 ft 413 kts 340°
2026-04-22 00:04 42.07109 14.02655 33623 ft 409 kts 340°
2026-04-22 00:04 42.09869 14.01803 33139 ft 404 kts 340°
2026-04-22 00:05 42.12589 14.00962 32677 ft 399 kts 340°
2026-04-22 00:05 42.15282 14.00128 32210 ft 395 kts 340°
2026-04-22 00:05 42.17940 13.99303 31750 ft 391 kts 340°
2026-04-22 00:05 42.20582 13.98482 31311 ft 387 kts 340°
2026-04-22 00:06 42.23193 13.97669 30864 ft 384 kts 340°
2026-04-22 00:06 42.25785 13.96861 30428 ft 381 kts 340°
2026-04-22 00:06 42.28358 13.96058 29959 ft 378 kts 340°
2026-04-22 00:06 42.30907 13.95263 29469 ft 374 kts 340°
2026-04-22 00:07 42.33428 13.94476 29015 ft 370 kts 340°
2026-04-22 00:07 42.35919 13.93698 28568 ft 365 kts 340°
2026-04-22 00:07 42.38384 13.92928 28113 ft 362 kts 340°
2026-04-22 00:07 42.40823 13.92164 27685 ft 358 kts 340°
2026-04-22 00:08 42.43240 13.91406 27223 ft 356 kts 340°
2026-04-22 00:08 42.45607 13.90664 26823 ft 352 kts 340°
2026-04-22 00:08 42.48016 13.89907 26394 ft 349 kts 340°
2026-04-22 00:08 42.50371 13.89167 25975 ft 347 kts 340°
2026-04-22 00:09 42.52717 13.88429 25556 ft 345 kts 340°
2026-04-22 00:09 42.55048 13.87695 25142 ft 343 kts 340°
2026-04-22 00:09 42.57338 13.86974 24733 ft 342 kts 340°
2026-04-22 00:09 42.59647 13.86246 24317 ft 340 kts 340°
2026-04-22 00:10 42.61952 13.85519 23881 ft 340 kts 340°
2026-04-22 00:10 42.64249 13.84793 23454 ft 339 kts 340°
2026-04-22 00:10 42.66542 13.84069 22987 ft 337 kts 340°
2026-04-22 00:10 42.68823 13.83349 22539 ft 335 kts 340°
2026-04-22 00:11 42.71085 13.82635 22124 ft 333 kts 340°
2026-04-22 00:11 42.73333 13.81924 21717 ft 330 kts 339°
2026-04-22 00:11 42.75565 13.81217 21314 ft 329 kts 339°
2026-04-22 00:11 42.77787 13.80513 20899 ft 327 kts 339°
2026-04-22 00:12 42.79998 13.79812 20511 ft 325 kts 339°
2026-04-22 00:12 42.82199 13.79113 20108 ft 323 kts 339°
2026-04-22 00:12 42.84382 13.78420 19720 ft 322 kts 339°
2026-04-22 00:12 42.86564 13.77726 19325 ft 321 kts 339°
2026-04-22 00:13 42.88733 13.77036 18931 ft 320 kts 339°
2026-04-22 00:13 42.90896 13.76347 18547 ft 319 kts 339°
2026-04-22 00:13 42.93058 13.75657 18119 ft 319 kts 339°
2026-04-22 00:13 42.95213 13.74968 17694 ft 318 kts 340°
2026-04-22 00:14 42.97358 13.74285 17290 ft 316 kts 340°
2026-04-22 00:14 42.99490 13.73606 16896 ft 313 kts 340°
2026-04-22 00:14 43.01608 13.72931 16522 ft 312 kts 340°
2026-04-22 00:14 43.03713 13.72257 16136 ft 310 kts 340°
2026-04-22 00:15 43.05807 13.71587 15772 ft 308 kts 341°
2026-04-22 00:15 43.07888 13.70920 15393 ft 306 kts 341°
2026-04-22 00:15 43.09958 13.70256 15048 ft 305 kts 341°
2026-04-22 00:15 43.12020 13.69595 14679 ft 304 kts 341°
2026-04-22 00:16 43.14077 13.68935 14302 ft 303 kts 342°
2026-04-22 00:16 43.16121 13.68279 13949 ft 301 kts 342°
2026-04-22 00:16 43.18154 13.67625 13553 ft 299 kts 342°
2026-04-22 00:16 43.20175 13.66976 13168 ft 298 kts 343°
2026-04-22 00:17 43.22189 13.66328 12801 ft 296 kts 343°
2026-04-22 00:17 43.24191 13.65684 12423 ft 295 kts 343°
2026-04-22 00:17 43.26154 13.65051 12077 ft 293 kts 343°
2026-04-22 00:17 43.28134 13.64413 11726 ft 292 kts 344°
2026-04-22 00:18 43.30105 13.63777 11365 ft 291 kts 344°
2026-04-22 00:18 43.32075 13.63141 11001 ft 290 kts 345°
2026-04-22 00:18 43.34040 13.62503 10641 ft 290 kts 344°
2026-04-22 00:18 43.35933 13.61610 10423 ft 283 kts 335°
2026-04-22 00:19 43.37694 13.60502 10304 ft 274 kts 333°
2026-04-22 00:19 43.39388 13.59385 10184 ft 266 kts 333°
2026-04-22 00:19 43.41043 13.58299 9943 ft 262 kts 334°
2026-04-22 00:19 43.42693 13.57228 9411 ft 263 kts 334°
2026-04-22 00:20 43.44361 13.56157 8858 ft 265 kts 335°
2026-04-22 00:20 43.46034 13.55091 8383 ft 265 kts 335°
2026-04-22 00:20 43.47703 13.54031 7904 ft 264 kts 335°
2026-04-22 00:20 43.49371 13.52975 7451 ft 263 kts 336°
2026-04-22 00:21 43.51026 13.51930 6953 ft 259 kts 336°
2026-04-22 00:21 43.52666 13.50893 6165 ft 261 kts 336°
2026-04-22 00:21 43.54322 13.49847 5456 ft 262 kts 336°
2026-04-22 00:21 43.55960 13.48812 4991 ft 253 kts 336°
2026-04-22 00:22 43.57591 13.48083 4759 ft 242 kts 359°
2026-04-22 00:22 43.59228 13.48506 4648 ft 244 kts 27°
2026-04-22 00:22 43.60603 13.49863 4520 ft 244 kts 45°
2026-04-22 00:22 43.61779 13.51551 4405 ft 244 kts 48°
2026-04-22 00:23 43.62923 13.53267 4224 ft 244 kts 48°
2026-04-22 00:23 43.64082 13.54992 3951 ft 244 kts 46°
2026-04-22 00:23 43.65503 13.56155 3642 ft 235 kts 14°
2026-04-22 00:23 43.67064 13.56118 3447 ft 220 kts 346°
2026-04-22 00:24 43.68399 13.55236 3192 ft 208 kts 325°
2026-04-22 00:24 43.69373 13.53854 2970 ft 194 kts 309°
2026-04-22 00:24 43.70155 13.52382 2753 ft 189 kts 308°
2026-04-22 00:24 43.70744 13.50769 2467 ft 186 kts 275°
2026-04-22 00:25 43.70426 13.49136 2369 ft 176 kts 237°
2026-04-22 00:25 43.69735 13.47726 2116 ft 176 kts 230°
2026-04-22 00:25 43.68973 13.46418 1876 ft 173 kts 228°
2026-04-22 00:25 43.68177 13.45228 1634 ft 164 kts 224°
2026-04-22 00:26 43.67392 13.44142 1416 ft 158 kts 224°
2026-04-22 00:26 43.66605 13.43064 1234 ft 160 kts 224°
2026-04-22 00:26 43.65819 13.41982 999 ft 158 kts 224°
2026-04-22 00:26 43.65051 13.40926 775 ft 154 kts 224°
2026-04-22 00:27 43.64293 13.39885 577 ft 153 kts 224°
2026-04-22 00:27 43.63547 13.38857 380 ft 151 kts 224°
2026-04-22 00:27 43.62811 13.37846 178 ft 147 kts 224°
2026-04-22 00:27 43.62103 13.36887 42 ft 135 kts 224°
2026-04-22 00:28 43.61592 13.36185 49 ft 72 kts 224°
2026-04-22 00:28 43.61388 13.35911 48 ft 12 kts 224°
2026-04-22 00:28 43.61331 13.35826 47 ft 14 kts 228°
2026-04-22 00:28 43.61256 13.35714 50 ft 18 kts 225°
2026-04-22 00:29 43.61152 13.35592 53 ft 22 kts 211°
2026-04-22 00:29 43.61029 13.35559 56 ft 11 kts 180°
2026-04-22 00:29 43.60952 13.35559 59 ft 11 kts 183°
2026-04-22 00:29 43.60886 13.35569 57 ft 8 kts 148°
2026-04-22 00:30 43.60857 13.35602 55 ft 0 kts 137°